Hourly Weather Corozal

Today, 4 August, Tuesday

Time Temperature Precipitation Wind Pressure Humidity
00:00 +27°C° 0 mm 1 mps 759 mmHg 96%
01:00 +27°C° 0.2 mm 1 mps 759 mmHg 95%
02:00 +27°C° 0.2 mm 1 mps 759 mmHg 95%
03:00 +27°C° 0.2 mm 1 mps 758 mmHg 95%
04:00 +27°C° 0 mm 1 mps 758 mmHg 95%
05:00 +26°C° 0 mm 1 mps 759 mmHg 95%
06:00 +25°C° 0 mm 0 mps 759 mmHg 94%
07:00 +28°C° 0 mm 1 mps 759 mmHg 85%
08:00 +30°C° 0 mm 1 mps 760 mmHg 76%
09:00 +32°C° 0 mm 1 mps 760 mmHg 68%
10:00 +33°C° 0 mm 1 mps 760 mmHg 61%
11:00 +34°C° 0 mm 1 mps 760 mmHg 55%
12:00 +35°C° 0 mm 1 mps 759 mmHg 49%
13:00 +36°C° 0 mm 2 mps 759 mmHg 50%
14:00 +36°C° 0 mm 2 mps 758 mmHg 51%
15:00 +36°C° 0 mm 2 mps 758 mmHg 52%
16:00 +35°C° 0 mm 2 mps 758 mmHg 60%
17:00 +32°C° 0 mm 2 mps 757 mmHg 68%
18:00 +30°C° 0 mm 2 mps 757 mmHg 75%
19:00 +30°C° 0 mm 2 mps 758 mmHg 79%
20:00 +29°C° 0 mm 2 mps 759 mmHg 82%
21:00 +28°C° 0 mm 2 mps 759 mmHg 86%
22:00 +28°C° 0.5 mm 2 mps 759 mmHg 88%
23:00 +27°C° 0.5 mm 2 mps 759 mmHg 90%

Tomorrow, 5 August, Wednesday

Time Temperature Precipitation Wind Pressure Humidity
00:00 +27°C° 0.5 mm 1 mps 759 mmHg 93%
01:00 +27°C° 0.8 mm 1 mps 759 mmHg 93%
02:00 +27°C° 0.8 mm 1 mps 758 mmHg 94%
03:00 +27°C° 0.8 mm 1 mps 758 mmHg 95%
04:00 +27°C° 0.1 mm 1 mps 758 mmHg 95%
05:00 +27°C° 0.1 mm 1 mps 758 mmHg 95%
06:00 +27°C° 0.1 mm 1 mps 758 mmHg 95%
07:00 +28°C° 0.2 mm 1 mps 758 mmHg 88%
08:00 +30°C° 0.2 mm 1 mps 759 mmHg 80%
09:00 +32°C° 0.2 mm 1 mps 759 mmHg 73%
10:00 +33°C° 0 mm 1 mps 759 mmHg 67%
11:00 +35°C° 0 mm 2 mps 759 mmHg 61%
12:00 +36°C° 0 mm 2 mps 758 mmHg 54%
13:00 +36°C° 0.1 mm 2 mps 758 mmHg 55%
14:00 +36°C° 0.1 mm 2 mps 757 mmHg 55%
15:00 +36°C° 0.1 mm 3 mps 757 mmHg 55%
16:00 +34°C° 0.3 mm 3 mps 757 mmHg 63%
17:00 +33°C° 0.3 mm 3 mps 757 mmHg 71%
18:00 +30°C° 0.3 mm 3 mps 757 mmHg 79%
19:00 +29°C° 0 mm 3 mps 757 mmHg 82%
20:00 +29°C° 0 mm 3 mps 758 mmHg 85%
21:00 +28°C° 0 mm 2 mps 759 mmHg 88%
22:00 +28°C° 0 mm 2 mps 758 mmHg 89%
23:00 +28°C° 0 mm 2 mps 758 mmHg 91%

Day after tomorrow, 6 August, Thursday

Time Temperature Precipitation Wind Pressure Humidity
00:00 +28°C° 0 mm 2 mps 758 mmHg 92%
01:00 +28°C° 0 mm 2 mps 758 mmHg 93%
02:00 +27°C° 0 mm 2 mps 757 mmHg 93%
03:00 +27°C° 0 mm 2 mps 757 mmHg 94%
04:00 +27°C° 0.1 mm 2 mps 757 mmHg 94%
05:00 +27°C° 0.1 mm 2 mps 757 mmHg 94%
06:00 +27°C° 0.1 mm 2 mps 757 mmHg 95%
07:00 +29°C° 0.6 mm 2 mps 758 mmHg 88%
08:00 +30°C° 0.6 mm 3 mps 758 mmHg 82%
09:00 +33°C° 0.6 mm 3 mps 759 mmHg 76%
10:00 +33°C° 2.1 mm 3 mps 758 mmHg 78%
11:00 +31°C° 2.1 mm 3 mps 758 mmHg 81%
12:00 +31°C° 2.1 mm 3 mps 758 mmHg 84%
13:00 +30°C° 1.6 mm 3 mps 758 mmHg 85%
14:00 +29°C° 1.6 mm 3 mps 757 mmHg 85%
15:00 +29°C° 1.6 mm 3 mps 757 mmHg 86%
16:00 +29°C° 0.5 mm 3 mps 757 mmHg 86%
17:00 +29°C° 0.5 mm 3 mps 757 mmHg 87%
18:00 +29°C° 0.5 mm 3 mps 757 mmHg 87%
19:00 +28°C° 1.1 mm 3 mps 758 mmHg 89%
20:00 +28°C° 1.1 mm 3 mps 758 mmHg 90%
21:00 +28°C° 1.1 mm 3 mps 759 mmHg 92%
22:00 +28°C° 0.1 mm 3 mps 759 mmHg 92%
23:00 +28°C° 0.1 mm 3 mps 759 mmHg 93%

7 August, Friday

Time Temperature Precipitation Wind Pressure Humidity
00:00 +28°C° 0.1 mm 3 mps 759 mmHg 93%
01:00 +28°C° 0.1 mm 3 mps 758 mmHg 93%
02:00 +27°C° 0.1 mm 2 mps 758 mmHg 93%
03:00 +27°C° 0.1 mm 2 mps 758 mmHg 93%
04:00 +27°C° 0 mm 2 mps 758 mmHg 93%
05:00 +27°C° 0 mm 2 mps 758 mmHg 93%
06:00 +27°C° 0 mm 3 mps 759 mmHg 93%
07:00 +29°C° 0 mm 3 mps 759 mmHg 84%
08:00 +30°C° 0 mm 4 mps 760 mmHg 75%
09:00 +33°C° 0 mm 4 mps 760 mmHg 66%
10:00 +33°C° 0.3 mm 4 mps 760 mmHg 66%
11:00 +34°C° 0.3 mm 4 mps 760 mmHg 66%
12:00 +34°C° 0.3 mm 4 mps 760 mmHg 66%
13:00 +34°C° 0.2 mm 4 mps 759 mmHg 64%
14:00 +34°C° 0.2 mm 4 mps 759 mmHg 62%
15:00 +34°C° 0.2 mm 4 mps 758 mmHg 60%
16:00 +33°C° 0.1 mm 3 mps 758 mmHg 66%
17:00 +31°C° 0.1 mm 3 mps 759 mmHg 73%
18:00 +29°C° 0.1 mm 3 mps 759 mmHg 79%
19:00 +28°C° 0.1 mm 3 mps 759 mmHg 83%
20:00 +28°C° 0.1 mm 2 mps 760 mmHg 87%
21:00 +27°C° 0.1 mm 2 mps 760 mmHg 91%
22:00 +26°C° 0.5 mm 2 mps 760 mmHg 92%
23:00 +26°C° 0.5 mm 2 mps 760 mmHg 94%

8 August, Saturday

Time Temperature Precipitation Wind Pressure Humidity
00:00 +26°C° 0.5 mm 2 mps 760 mmHg 95%
01:00 +26°C° 0.3 mm 2 mps 760 mmHg 95%
02:00 +26°C° 0.3 mm 2 mps 759 mmHg 95%
03:00 +26°C° 0.3 mm 2 mps 759 mmHg 95%
04:00 +26°C° 0 mm 2 mps 759 mmHg 95%
05:00 +26°C° 0 mm 2 mps 759 mmHg 95%
06:00 +26°C° 0 mm 2 mps 760 mmHg 95%
07:00 +27°C° 0.4 mm 2 mps 760 mmHg 91%
08:00 +29°C° 0.4 mm 2 mps 760 mmHg 87%
09:00 +30°C° 0.4 mm 3 mps 761 mmHg 83%
10:00 +31°C° 0.6 mm 3 mps 761 mmHg 78%
11:00 +33°C° 0.6 mm 3 mps 760 mmHg 73%
12:00 +34°C° 0.6 mm 3 mps 760 mmHg 67%
13:00 +34°C° 0.1 mm 3 mps 760 mmHg 63%
14:00 +35°C° 0.1 mm 3 mps 759 mmHg 59%
15:00 +35°C° 0.1 mm 3 mps 759 mmHg 56%
16:00 +34°C° 0 mm 3 mps 759 mmHg 61%
17:00 +31°C° 0 mm 3 mps 759 mmHg 67%
18:00 +30°C° 0 mm 3 mps 759 mmHg 73%
19:00 +29°C° 0 mm 3 mps 760 mmHg 77%
20:00 +28°C° 0 mm 3 mps 760 mmHg 82%
21:00 +27°C° 0 mm 2 mps 761 mmHg 87%
22:00 +27°C° 0 mm 2 mps 761 mmHg 89%
23:00 +27°C° 0 mm 2 mps 760 mmHg 91%

9 August, Sunday

Time Temperature Precipitation Wind Pressure Humidity
00:00 +27°C° 0 mm 1 mps 760 mmHg 93%
01:00 +26°C° 0.1 mm 1 mps 760 mmHg 93%
02:00 +26°C° 0.1 mm 1 mps 759 mmHg 94%
03:00 +26°C° 0.1 mm 2 mps 759 mmHg 94%
04:00 +26°C° 0.6 mm 1 mps 759 mmHg 95%
05:00 +26°C° 0.6 mm 1 mps 759 mmHg 96%
06:00 +26°C° 0.6 mm 1 mps 760 mmHg 96%
07:00 +27°C° 1 mm 2 mps 760 mmHg 91%
08:00 +29°C° 1 mm 2 mps 760 mmHg 86%
09:00 +30°C° 1 mm 2 mps 761 mmHg 81%
10:00 +31°C° 1.1 mm 2 mps 760 mmHg 77%
11:00 +33°C° 1.1 mm 3 mps 760 mmHg 72%
12:00 +34°C° 1.1 mm 3 mps 760 mmHg 68%
13:00 +34°C° 0.4 mm 3 mps 759 mmHg 68%
14:00 +34°C° 0.4 mm 3 mps 759 mmHg 68%
15:00 +34°C° 0.4 mm 3 mps 758 mmHg 67%
16:00 +31°C° 0.4 mm 3 mps 758 mmHg 73%
17:00 +30°C° 0.4 mm 3 mps 758 mmHg 79%
18:00 +29°C° 0.4 mm 3 mps 759 mmHg 85%
19:00 +28°C° 0.6 mm 3 mps 759 mmHg 87%
20:00 +28°C° 0.6 mm 3 mps 759 mmHg 89%
21:00 +27°C° 0.6 mm 3 mps 760 mmHg 90%
22:00 +27°C° 0.6 mm 3 mps 760 mmHg 92%
23:00 +27°C° 0.6 mm 3 mps 759 mmHg 93%
Show more